Time,TemperatureF,DewpointF,PressureIn,WindDirection,WindDirectionDegrees,WindSpeedMPH,WindSpeedGustMPH,Humidity,HourlyPrecipIn,Conditions,Clouds,dailyrainin,SoftwareType,DateUTC
2013-05-13 00:06:00,43.3,34.0,30.09,West,280,0.0,0.0,71,0.00,,,0.00,weatherlink.com 1.10,2013-05-13 04:06:00,
2013-05-13 00:21:00,42.8,35.0,30.09,West,280,0.0,0.0,75,0.00,,,0.00,weatherlink.com 1.10,2013-05-13 04:21:00,
2013-05-13 00:36:00,42.0,35.0,30.09,West,280,0.0,1.0,76,0.00,,,0.00,weatherlink.com 1.10,2013-05-13 04:36:00,
2013-05-13 00:51:00,41.4,36.0,30.10,West,281,0.0,1.0,80,0.00,,,0.00,weatherlink.com 1.10,2013-05-13 04:51:00,
2013-05-13 01:06:00,41.1,36.0,30.10,West,280,0.0,1.0,81,0.00,,,0.00,weatherlink.com 1.10,2013-05-13 05:06:00,
2013-05-13 01:21:00,40.6,35.0,30.10,West,280,0.0,1.0,80,0.00,,,0.00,weatherlink.com 1.10,2013-05-13 05:21:00,
2013-05-13 01:36:00,40.0,35.0,30.10,West,280,0.0,1.0,82,0.00,,,0.00,weatherlink.com 1.10,2013-05-13 05:36:00,
2013-05-13 01:51:00,39.4,35.0,30.10,West,280,0.0,1.0,84,0.00,,,0.00,weatherlink.com 1.10,2013-05-13 05:51:00,
2013-05-13 02:06:00,38.5,34.0,30.10,West,280,0.0,0.0,85,0.00,,,0.00,weatherlink.com 1.10,2013-05-13 06:06:00,
2013-05-13 02:21:00,38.0,35.0,30.10,West,280,0.0,1.0,88,0.00,,,0.00,weatherlink.com 1.10,2013-05-13 06:21:00,
2013-05-13 02:36:00,37.6,34.0,30.10,West,280,0.0,0.0,88,0.00,,,0.00,weatherlink.com 1.10,2013-05-13 06:36:00,
2013-05-13 02:51:00,36.8,34.0,30.09,West,280,0.0,1.0,88,0.00,,,0.00,weatherlink.com 1.10,2013-05-13 06:51:00,
2013-05-13 03:06:00,36.4,34.0,30.09,West,280,0.0,1.0,90,0.00,,,0.00,weatherlink.com 1.10,2013-05-13 07:06:00,
2013-05-13 03:21:00,36.2,34.0,30.09,West,280,0.0,0.0,91,0.00,,,0.00,weatherlink.com 1.10,2013-05-13 07:21:00,
2013-05-13 03:36:00,35.6,33.0,30.09,WNW,291,0.0,1.0,91,0.00,,,0.00,weatherlink.com 1.10,2013-05-13 07:36:00,
2013-05-13 03:51:00,35.1,33.0,30.09,WNW,291,0.0,1.0,91,0.00,,,0.00,weatherlink.com 1.10,2013-05-13 07:51:00,
2013-05-13 04:06:00,35.0,33.0,30.09,WNW,291,0.0,0.0,92,0.00,,,0.00,weatherlink.com 1.10,2013-05-13 08:06:00,
2013-05-13 04:21:00,34.7,33.0,30.09,WNW,291,0.0,1.0,92,0.00,,,0.00,weatherlink.com 1.10,2013-05-13 08:21:00,
2013-05-13 04:36:00,34.8,33.0,30.09,WNW,291,0.0,0.0,93,0.00,,,0.00,weatherlink.com 1.10,2013-05-13 08:36:00,
2013-05-13 04:51:00,34.5,33.0,30.10,WNW,291,0.0,0.0,93,0.00,,,0.00,weatherlink.com 1.10,2013-05-13 08:51:00,
2013-05-13 05:06:00,34.3,33.0,30.10,WNW,291,0.0,1.0,93,0.00,,,0.00,weatherlink.com 1.10,2013-05-13 09:06:00,
2013-05-13 05:21:00,34.0,32.0,30.10,WNW,291,0.0,0.0,93,0.00,,,0.00,weatherlink.com 1.10,2013-05-13 09:21:00,
2013-05-13 05:36:00,34.1,32.0,30.10,WNW,291,0.0,0.0,93,0.00,,,0.00,weatherlink.com 1.10,2013-05-13 09:36:00,
2013-05-13 05:51:00,34.5,33.0,30.11,WNW,291,0.0,0.0,94,0.00,,,0.00,weatherlink.com 1.10,2013-05-13 09:51:00,
2013-05-13 06:06:00,34.8,33.0,30.11,WNW,291,0.0,1.0,93,0.00,,,0.00,weatherlink.com 1.10,2013-05-13 10:06:00,
2013-05-13 06:21:00,35.2,33.0,30.12,WNW,291,0.0,1.0,93,0.00,,,0.00,weatherlink.com 1.10,2013-05-13 10:21:00,
2013-05-13 06:36:00,35.7,34.0,30.12,WNW,291,0.0,1.0,93,0.00,,,0.00,weatherlink.com 1.10,2013-05-13 10:36:00,
2013-05-13 06:51:00,36.0,34.0,30.13,WNW,291,0.0,0.0,92,0.00,,,0.00,weatherlink.com 1.10,2013-05-13 10:51:00,
2013-05-13 07:06:00,36.6,35.0,30.13,WNW,291,0.0,1.0,92,0.00,,,0.00,weatherlink.com 1.10,2013-05-13 11:06:00,
2013-05-13 07:22:00,37.2,35.0,30.14,WNW,291,0.0,0.0,93,0.00,,,0.00,weatherlink.com 1.10,2013-05-13 11:22:00,
2013-05-13 07:37:00,38.3,36.0,30.15,WNW,291,0.0,1.0,90,0.00,,,0.00,weatherlink.com 1.10,2013-05-13 11:37:00,
2013-05-13 07:52:00,39.3,35.0,30.15,WNW,291,0.0,0.0,83,0.00,,,0.00,weatherlink.com 1.10,2013-05-13 11:52:00,
2013-05-13 08:07:00,40.5,33.0,30.15,WNW,291,0.0,1.0,75,0.00,,,0.00,weatherlink.com 1.10,2013-05-13 12:07:00,
2013-05-13 08:22:00,41.8,33.0,30.15,West,281,0.0,1.0,72,0.00,,,0.00,weatherlink.com 1.10,2013-05-13 12:22:00,
2013-05-13 08:37:00,44.0,34.0,30.16,West,276,0.0,2.0,68,0.00,,,0.00,weatherlink.com 1.10,2013-05-13 12:37:00,
2013-05-13 08:52:00,46.9,33.0,30.16,WNW,298,1.0,5.0,60,0.00,,,0.00,weatherlink.com 1.10,2013-05-13 12:52:00,
2013-05-13 09:07:00,46.9,33.0,30.17,WNW,290,2.0,3.0,60,0.00,,,0.00,weatherlink.com 1.10,2013-05-13 13:07:00,
2013-05-13 09:22:00,46.8,31.0,30.18,NW,314,1.0,3.0,54,0.00,,,0.00,weatherlink.com 1.10,2013-05-13 13:22:00,
2013-05-13 09:37:00,46.9,31.0,30.18,East,97,2.0,3.0,54,0.00,,,0.00,weatherlink.com 1.10,2013-05-13 13:37:00,
2013-05-13 09:52:00,47.7,31.0,30.18,WSW,248,1.0,4.0,53,0.00,,,0.00,weatherlink.com 1.10,2013-05-13 13:52:00,
2013-05-13 10:07:00,48.3,29.0,30.18,SW,219,1.0,3.0,48,0.00,,,0.00,weatherlink.com 1.10,2013-05-13 14:07:00,
2013-05-13 10:22:00,48.4,30.0,30.18,West,273,0.0,2.0,49,0.00,,,0.00,weatherlink.com 1.10,2013-05-13 14:22:00,
2013-05-13 10:37:00,49.1,31.0,30.18,WNW,289,1.0,2.0,51,0.00,,,0.00,weatherlink.com 1.10,2013-05-13 14:37:00,
2013-05-13 10:52:00,51.1,31.0,30.18,SSE,160,3.0,6.0,47,0.00,,,0.00,weatherlink.com 1.10,2013-05-13 14:52:00,
2013-05-13 11:07:00,50.7,32.0,30.18,SW,229,3.0,8.0,49,0.00,,,0.00,weatherlink.com 1.10,2013-05-13 15:07:00,
2013-05-13 11:22:00,51.4,32.0,30.18,NE,47,2.0,6.0,48,0.00,,,0.00,weatherlink.com 1.10,2013-05-13 15:22:00,
2013-05-13 11:37:00,50.5,31.0,30.18,WNW,290,0.0,6.0,48,0.00,,,0.00,weatherlink.com 1.10,2013-05-13 15:37:00,
2013-05-13 11:52:00,51.5,31.0,30.18,NNE,25,2.0,5.0,45,0.00,,,0.00,weatherlink.com 1.10,2013-05-13 15:52:00,
2013-05-13 12:07:00,51.4,32.0,30.18,West,271,2.0,12.0,48,0.00,,,0.00,weatherlink.com 1.10,2013-05-13 16:07:00,
2013-05-13 12:22:00,49.7,31.0,30.17,NNW,338,0.0,5.0,49,0.00,,,0.00,weatherlink.com 1.10,2013-05-13 16:22:00,
2013-05-13 12:37:00,48.6,31.0,30.18,NE,47,2.0,4.0,51,0.00,,,0.00,weatherlink.com 1.10,2013-05-13 16:37:00,
2013-05-13 12:52:00,48.8,30.0,30.17,West,271,1.0,4.0,48,0.00,,,0.00,weatherlink.com 1.10,2013-05-13 16:52:00,
2013-05-13 13:07:00,51.1,31.0,30.16,SW,225,1.0,4.0,46,0.00,,,0.00,weatherlink.com 1.10,2013-05-13 17:07:00,
2013-05-13 13:23:00,51.0,32.0,30.16,SW,233,1.0,7.0,49,0.00,,,0.00,weatherlink.com 1.10,2013-05-13 17:23:00,
2013-05-13 13:37:00,51.4,34.0,30.16,WSW,245,4.0,6.0,51,0.00,,,0.00,weatherlink.com 1.10,2013-05-13 17:37:00,
2013-05-13 13:52:00,49.9,33.0,30.17,WSW,252,2.0,6.0,53,0.00,,,0.00,weatherlink.com 1.10,2013-05-13 17:52:00,
2013-05-13 14:07:00,49.1,34.0,30.16,SW,219,0.0,6.0,57,0.00,,,0.00,weatherlink.com 1.10,2013-05-13 18:07:00,
2013-05-13 14:22:00,49.6,31.0,30.16,West,269,0.0,3.0,50,0.00,,,0.00,weatherlink.com 1.10,2013-05-13 18:22:00,
2013-05-13 14:37:00,49.5,34.0,30.16,East,92,1.0,4.0,55,0.00,,,0.00,weatherlink.com 1.10,2013-05-13 18:37:00,
2013-05-13 14:52:00,48.5,32.0,30.17,SW,227,3.0,6.0,54,0.00,,,0.00,weatherlink.com 1.10,2013-05-13 18:52:00,
2013-05-13 15:07:00,47.3,38.0,30.17,SE,125,1.0,3.0,69,0.00,,,0.00,weatherlink.com 1.10,2013-05-13 19:07:00,
2013-05-13 15:22:00,48.3,36.0,30.16,SSE,155,3.0,4.0,63,0.00,,,0.00,weatherlink.com 1.10,2013-05-13 19:22:00,
2013-05-13 15:37:00,48.7,36.0,30.17,SW,218,2.0,2.0,61,0.00,,,0.00,weatherlink.com 1.10,2013-05-13 19:37:00,
2013-05-13 15:52:00,47.8,38.0,30.17,WNW,288,0.0,4.0,70,0.00,,,0.00,weatherlink.com 1.10,2013-05-13 19:52:00,
2013-05-13 16:07:00,47.2,38.0,30.16,SW,217,2.0,5.0,70,0.00,,,0.00,weatherlink.com 1.10,2013-05-13 20:07:00,
2013-05-13 16:22:00,49.2,37.0,30.15,SSW,204,1.0,4.0,63,0.00,,,0.00,weatherlink.com 1.10,2013-05-13 20:22:00,
2013-05-13 16:37:00,49.9,35.0,30.16,NW,306,3.0,6.0,58,0.00,,,0.00,weatherlink.com 1.10,2013-05-13 20:37:00,
2013-05-13 16:52:00,47.5,38.0,30.17,NNE,13,1.0,5.0,70,0.00,,,0.00,weatherlink.com 1.10,2013-05-13 20:52:00,
2013-05-13 17:07:00,46.6,37.0,30.16,SSE,155,1.0,3.0,70,0.00,,,0.00,weatherlink.com 1.10,2013-05-13 21:07:00,
2013-05-13 17:22:00,48.5,37.0,30.16,NW,308,1.0,3.0,65,0.00,,,0.00,weatherlink.com 1.10,2013-05-13 21:22:00,
2013-05-13 17:37:00,50.1,35.0,30.15,NW,311,1.0,6.0,57,0.00,,,0.00,weatherlink.com 1.10,2013-05-13 21:37:00,
2013-05-13 17:52:00,51.4,35.0,30.14,SSE,151,2.0,3.0,54,0.00,,,0.00,weatherlink.com 1.10,2013-05-13 21:52:00,
2013-05-13 18:07:00,51.3,35.0,30.14,WSW,240,1.0,3.0,55,0.00,,,0.00,weatherlink.com 1.10,2013-05-13 22:07:00,
2013-05-13 18:22:00,51.1,32.0,30.14,NW,307,0.0,5.0,49,0.00,,,0.00,weatherlink.com 1.10,2013-05-13 22:22:00,
2013-05-13 18:37:00,51.8,34.0,30.14,West,260,0.0,3.0,52,0.00,,,0.00,weatherlink.com 1.10,2013-05-13 22:37:00,
2013-05-13 18:52:00,51.1,34.0,30.14,WNW,285,1.0,2.0,52,0.00,,,0.00,weatherlink.com 1.10,2013-05-13 22:52:00,
2013-05-13 19:07:00,49.7,33.0,30.15,WNW,294,4.0,5.0,54,0.00,,,0.00,weatherlink.com 1.10,2013-05-13 23:07:00,
2013-05-13 19:22:00,48.8,34.0,30.15,SSW,212,0.0,2.0,57,0.00,,,0.00,weatherlink.com 1.10,2013-05-13 23:22:00,
2013-05-13 19:37:00,48.3,33.0,30.15,East,101,1.0,2.0,56,0.00,,,0.00,weatherlink.com 1.10,2013-05-13 23:37:00,
2013-05-13 19:52:00,47.8,33.0,30.15,SE,135,0.0,2.0,56,0.00,,,0.00,weatherlink.com 1.10,2013-05-13 23:52:00,
2013-05-13 20:07:00,47.2,34.0,30.15,WSW,246,0.0,1.0,60,0.00,,,0.00,weatherlink.com 1.10,2013-05-14 00:07:00,
2013-05-13 20:22:00,46.3,32.0,30.16,East,89,0.0,1.0,59,0.00,,,0.00,weatherlink.com 1.10,2013-05-14 00:22:00,
2013-05-13 20:38:00,45.1,33.0,30.17,WNW,300,0.0,1.0,64,0.00,,,0.00,weatherlink.com 1.10,2013-05-14 00:38:00,
2013-05-13 20:53:00,43.9,34.0,30.17,WNW,300,0.0,1.0,69,0.00,,,0.00,weatherlink.com 1.10,2013-05-14 00:53:00,
2013-05-13 21:08:00,42.6,34.0,30.18,WNW,300,0.0,1.0,72,0.00,,,0.00,weatherlink.com 1.10,2013-05-14 01:08:00,
2013-05-13 21:23:00,41.4,33.0,30.19,WNW,300,0.0,0.0,73,0.00,,,0.00,weatherlink.com 1.10,2013-05-14 01:23:00,
2013-05-13 21:38:00,40.6,34.0,30.19,WNW,301,0.0,0.0,76,0.00,,,0.00,weatherlink.com 1.10,2013-05-14 01:38:00,
2013-05-13 21:53:00,39.9,34.0,30.20,WNW,301,0.0,0.0,79,0.00,,,0.00,weatherlink.com 1.10,2013-05-14 01:53:00,
2013-05-13 22:08:00,38.9,33.0,30.21,WNW,301,0.0,0.0,79,0.00,,,0.00,weatherlink.com 1.10,2013-05-14 02:08:00,
2013-05-13 22:23:00,38.2,33.0,30.21,WNW,301,0.0,0.0,81,0.00,,,0.00,weatherlink.com 1.10,2013-05-14 02:23:00,
2013-05-13 22:38:00,37.3,33.0,30.21,WNW,301,0.0,0.0,84,0.00,,,0.00,weatherlink.com 1.10,2013-05-14 02:38:00,
2013-05-13 22:53:00,36.7,33.0,30.21,WNW,301,0.0,0.0,85,0.00,,,0.00,weatherlink.com 1.10,2013-05-14 02:53:00,
2013-05-13 23:09:00,36.1,33.0,30.21,WNW,300,0.0,0.0,87,0.00,,,0.00,weatherlink.com 1.10,2013-05-14 03:09:00,
2013-05-13 23:23:00,35.7,33.0,30.21,WNW,301,0.0,1.0,88,0.00,,,0.00,weatherlink.com 1.10,2013-05-14 03:23:00,
2013-05-13 23:38:00,35.3,32.0,30.21,WNW,300,0.0,0.0,89,0.00,,,0.00,weatherlink.com 1.10,2013-05-14 03:38:00,
2013-05-13 23:53:00,34.9,32.0,30.21,WNW,301,0.0,0.0,89,0.00,,,0.00,weatherlink.com 1.10,2013-05-14 03:53:00,